This is the latest recevied weather packets stored in our database for station/object KX4O-13. If no packets are shown the sender has not sent any weather packets the latest 10 day(s).
| Time | Temp. | Humidity | Pressure | Rain* | Wind** | Luminosity | Snow |
|---|---|---|---|---|---|---|---|
| 1777931754 | 23.33° C | 37% | 1009.7 hPa | 0 mm | - | 364 W/m² | - |
| 1777931454 | 23.89° C | 37% | 1009.6 hPa | 0 mm | - | 388 W/m² | - |
| 1777931154 | 23.89° C | 37% | 1009.6 hPa | 0 mm | - | 401 W/m² | - |
| 1777930854 | 23.89° C | 39% | 1009.7 hPa | 0 mm | - | 408 W/m² | - |
| 1777930554 | 23.89° C | 37% | 1009.7 hPa | 0 mm | - | 427 W/m² | - |
| 1777930256 | 23.89° C | 37% | 1009.7 hPa | 0 mm | - | 459 W/m² | - |
| 1777929954 | 23.89° C | 36% | 1009.6 hPa | 0 mm | - | 459 W/m² | - |
| 1777929654 | 23.89° C | 36% | 1009.5 hPa | 0 mm | - | 476 W/m² | - |
| 1777929354 | 23.89° C | 37% | 1009.6 hPa | 0 mm | - | 490 W/m² | - |
| 1777929054 | 23.89° C | 36% | 1009.5 hPa | 0 mm | - | 508 W/m² | - |
| 1777928754 | 23.89° C | 37% | 1009.5 hPa | 0 mm | - | 520 W/m² | - |
| 1777928454 | 24.44° C | 35% | 1009.5 hPa | 0 mm | - | 531 W/m² | - |
| 1777928154 | 25° C | 36% | 1009.6 hPa | 0 mm | - | 601 W/m² | - |
| 1777927856 | 24.44° C | 38% | 1009.5 hPa | 0 mm | - | 652 W/m² | - |
| 1777927554 | 23.89° C | 35% | 1009.5 hPa | 0 mm | - | 635 W/m² | - |
| 1777927254 | 23.89° C | 37% | 1009.7 hPa | 0 mm | - | 613 W/m² | - |
| 1777926954 | 23.89° C | 37% | 1009.6 hPa | 0 mm | - | 613 W/m² | - |
| 1777926654 | 23.89° C | 36% | 1009.8 hPa | 0 mm | - | 622 W/m² | - |
| 1777926354 | 23.89° C | 37% | 1009.7 hPa | 0 mm | - | 636 W/m² | - |
| 1777926054 | 23.89° C | 35% | 1009.8 hPa | 0 mm | - | 643 W/m² | - |
| 1777925754 | 23.89° C | 36% | 1009.9 hPa | 0 mm | - | 650 W/m² | - |
| 1777925456 | 24.44° C | 34% | 1009.9 hPa | 0 mm | - | 666 W/m² | - |
| 1777925154 | 24.44° C | 34% | 1009.9 hPa | 0 mm | - | 703 W/m² | - |
| 1777924854 | 25° C | 34% | 1009.8 hPa | 0 mm | - | 754 W/m² | - |
| 1777924554 | 25.56° C | 33% | 1009.8 hPa | 0 mm | - | 756 W/m² | - |
* Rain latest hour (hover to see other rain measurements)
** Current wind speed in m/s (hover to see current wind gust speed)